| time (UTC) | temp F | wind direction | speed MPH | gust MPH | rain 1hr in | rain 24hr in | rain mn in | humidity % | barometer mb |
| 20260901144124 | 57 | 51 | 2.0 | 3.0 | 0.00 | 0.17 | 0.00 | 74 | 1007.1 |
| 20260901143036 | 57 | 18 | 1.0 | 2.0 | 0.00 | 0.18 | 0.00 | 75 | 1007.2 |
| 20260901142100 | 57 | 77 | 2.0 | 3.0 | 0.00 | 0.18 | 0.00 | 74 | 1007.2 |
| 20260901141124 | 57 | 107 | 2.0 | 4.0 | 0.00 | 0.19 | 0.00 | 72 | 1007.3 |
| 20260901140036 | 57 | 42 | 2.0 | 4.0 | 0.00 | 0.19 | 0.00 | 68 | 1007.4 |
| 20260901135100 | 59 | 292 | 1.0 | 4.0 | 0.00 | 0.19 | 0.00 | 65 | 1007.4 |
| 20260901134124 | 58 | 293 | 2.0 | 3.0 | 0.00 | 0.20 | 0.00 | 66 | 1007.1 |
| 20260901133036 | 60 | 236 | 1.0 | 1.0 | 0.00 | 0.20 | 0.00 | 65 | 1007.3 |
| 20260901132100 | 57 | 270 | 0.0 | 2.0 | 0.00 | 0.20 | 0.00 | 66 | 1007.4 |
| 20260901131144 | 56 | 246 | 1.0 | 2.0 | 0.00 | 0.20 | 0.00 | 70 | 1007.3 |
| 20260901130036 | 55 | 270 | 0.0 | 1.0 | 0.00 | 0.20 | 0.00 | 75 | 1007.3 |
| 20260901125100 | 55 | 0.0 | 0.0 | 0.00 | 0.20 | 0.00 | 75 | 1007.5 | |
| 20260901124124 | 55 | 311 | 0.0 | 1.0 | 0.00 | 0.20 | 0.00 | 74 | 1007.3 |
| 20260901123036 | 55 | 312 | 0.0 | 1.0 | 0.00 | 0.20 | 0.00 | 76 | 1007.3 |
| 20260901122119 | 55 | 0.0 | 0.0 | 0.00 | 0.20 | 0.00 | 79 | 1007.4 | |
| 20260901121143 | 55 | 0.0 | 0.0 | 0.00 | 0.20 | 0.00 | 77 | 1007.3 | |
| 20260901120055 | 55 | 16 | 1.0 | 1.0 | 0.00 | 0.20 | 0.00 | 76 | 1007.3 |
| 20260901115100 | 56 | 37 | 2.0 | 3.0 | 0.00 | 0.20 | 0.00 | 74 | 1007.4 |
| 20260901114123 | 56 | 39 | 2.0 | 3.0 | 0.00 | 0.20 | 0.00 | 73 | 1007.3 |
| 20260901113035 | 56 | 341 | 1.0 | 1.0 | 0.00 | 0.20 | 0.00 | 74 | 1007.4 |
| 20260901111123 | 55 | 334 | 2.0 | 2.0 | 0.00 | 0.20 | 0.00 | 76 | 1007.3 |
| 20260901110035 | 55 | 318 | 0.0 | 1.0 | 0.00 | 0.20 | 0.00 | 78 | 1007.6 |
| 20260901105103 | 56 | 340 | 1.0 | 2.0 | 0.00 | 0.20 | 0.00 | 75 | 1007.5 |
| 20260901104126 | 56 | 294 | 2.0 | 4.0 | 0.00 | 0.20 | 0.00 | 77 | 1007.6 |
| 20260901103038 | 55 | 299 | 1.0 | 3.0 | 0.00 | 0.20 | 0.00 | 76 | 1007.3 |
| 20260901102102 | 54 | 326 | 2.0 | 3.0 | 0.00 | 0.20 | 0.00 | 80 | 1007.4 |
| 20260901101126 | 55 | 297 | 1.0 | 1.0 | 0.00 | 0.20 | 0.00 | 79 | 1007.4 |
| 20260901100038 | 56 | 317 | 1.0 | 3.0 | 0.00 | 0.20 | 0.00 | 78 | 1007.2 |
| 20260901095102 | 55 | 341 | 2.0 | 3.0 | 0.00 | 0.20 | 0.00 | 80 | 1007.3 |
| 20260901094126 | 54 | 314 | 2.0 | 2.0 | 0.00 | 0.20 | 0.00 | 81 | 1007.1 |
| 20260901093038 | 55 | 337 | 2.0 | 3.0 | 0.00 | 0.20 | 0.00 | 80 | 1007.2 |
| 20260901092101 | 56 | 334 | 1.0 | 2.0 | 0.00 | 0.20 | 0.00 | 82 | 1007.2 |
| 20260901091126 | 56 | 320 | 1.0 | 2.0 | 0.00 | 0.20 | 0.00 | 80 | 1007.1 |
| 20260901090037 | 56 | 304 | 2.0 | 4.0 | 0.00 | 0.20 | 0.00 | 81 | 1007.0 |
| 20260901085101 | 54 | 254 | 1.0 | 2.0 | 0.00 | 0.20 | 0.00 | 86 | 1007.0 |
| 20260901084125 | 54 | 264 | 0.0 | 1.0 | 0.00 | 0.20 | 0.00 | 84 | 1007.1 |
| 20260901083037 | 53 | 265 | 2.0 | 3.0 | 0.00 | 0.20 | 0.00 | 85 | 1007.1 |
| 20260901082101 | 53 | 293 | 1.0 | 3.0 | 0.00 | 0.20 | 0.00 | 88 | 1007.1 |
| 20260901081125 | 53 | 165 | 1.0 | 2.0 | 0.00 | 0.20 | 0.00 | 89 | 1007.0 |
| 20260901080057 | 53 | 225 | 1.0 | 1.0 | 0.00 | 0.20 | 0.00 | 90 | 1007.0 |
| 20260901075101 | 53 | 156 | 0.0 | 1.0 | 0.00 | 0.20 | 0.00 | 90 | 1007.2 |
| 20260901074125 | 52 | 167 | 1.0 | 2.0 | 0.00 | 0.20 | 0.00 | 93 | 1007.1 |
| 20260901073037 | 52 | 207 | 1.0 | 2.0 | 0.00 | 0.20 | 0.00 | 92 | 1006.9 |
| 20260901072121 | 51 | 0.0 | 0.0 | 0.00 | 0.20 | 0.00 | 96 | 1007.0 | |
| 20260901071125 | 51 | 0.0 | 0.0 | 0.00 | 0.20 | 0.00 | 96 | 1007.0 | |
| 20260901070117 | 51 | 0.0 | 0.0 | 0.00 | 0.20 | 0.00 | 97 | 1006.8 | |
| 20260901065101 | 51 | 204 | 0.0 | 1.0 | 0.00 | 0.20 | 0.00 | 98 | 1006.8 |
| 20260901064145 | 50 | 0.0 | 0.0 | 0.00 | 0.20 | 0.00 | 99 | 1006.6 | |
| 20260901063037 | 50 | 0.0 | 0.0 | 0.00 | 0.20 | 0.00 | 99 | 1006.7 | |
| 20260901062101 | 50 | 153 | 0.0 | 2.0 | 0.00 | 0.20 | 0.00 | 99 | 1006.5 |
| 20260901061125 | 49 | 0.0 | 0.0 | 0.00 | 0.20 | 0.00 | 99 | 1006.7 | |
| 20260901060037 | 49 | 0.0 | 0.0 | 0.00 | 0.20 | 0.00 | 99 | 1006.6 | |
| 20260901055101 | 49 | 0.0 | 0.0 | 0.00 | 0.20 | 0.00 | 99 | 1006.3 | |
| 20260901054125 | 48 | 0.0 | 0.0 | 0.00 | 0.20 | 0.00 | 99 | 1006.5 | |
| 20260901053037 | 48 | 0.0 | 0.0 | 0.00 | 0.20 | 0.00 | 99 | 1006.4 | |
| 20260901052101 | 47 | 0.0 | 0.0 | 0.00 | 0.20 | 0.00 | 99 | 1006.4 | |
| 20260901051125 | 47 | 0.0 | 0.0 | 0.00 | 0.20 | 0.00 | 99 | 1006.4 | |
| 20260901050037 | 47 | 0.0 | 0.0 | 0.00 | 0.20 | 0.00 | 99 | 1006.4 | |
| 20260901045101 | 47 | 0.0 | 0.0 | 0.00 | 0.20 | 0.00 | 99 | 1006.3 | |
| 20260901044125 | 46 | 0.0 | 0.0 | 0.00 | 0.20 | 0.00 | 99 | 1006.5 | |
| 20260901043037 | 46 | 0.0 | 0.0 | 0.00 | 0.20 | 0.00 | 99 | 1006.4 | |
| 20260901042101 | 46 | 0.0 | 0.0 | 0.00 | 0.20 | 0.00 | 99 | 1006.4 | |
| 20260901041125 | 46 | 0.0 | 0.0 | 0.00 | 0.20 | 0.00 | 99 | 1006.4 | |
| 20260901040057 | 45 | 288 | 0.0 | 1.0 | 0.00 | 0.20 | 0.00 | 99 | 1006.5 |
| 20260901035101 | 45 | 228 | 0.0 | 1.0 | 0.00 | 0.20 | 0.00 | 99 | 1006.6 |
| 20260901034125 | 46 | 0.0 | 0.0 | 0.00 | 0.20 | 0.00 | 99 | 1006.4 | |
| 20260901033037 | 45 | 240 | 0.0 | 1.0 | 0.00 | 0.20 | 0.00 | 99 | 1006.5 |
| 20260901032120 | 45 | 0.0 | 0.0 | 0.00 | 0.20 | 0.00 | 99 | 1006.6 | |
| 20260901031124 | 45 | 0.0 | 0.0 | 0.00 | 0.20 | 0.00 | 99 | 1006.6 | |
| 20260901030036 | 46 | 0.0 | 0.0 | 0.00 | 0.20 | 0.00 | 99 | 1006.5 | |
| 20260901025100 | 46 | 0.0 | 0.0 | 0.00 | 0.20 | 0.00 | 99 | 1006.5 | |
| 20260901024124 | 46 | 0.0 | 0.0 | 0.00 | 0.20 | 0.00 | 99 | 1006.5 | |
| 20260901023056 | 46 | 0.0 | 0.0 | 0.00 | 0.20 | 0.00 | 99 | 1006.5 | |
| 20260901022120 | 46 | 0.0 | 0.0 | 0.00 | 0.20 | 0.00 | 99 | 1006.5 | |
| 20260901021124 | 45 | 0.0 | 0.0 | 0.00 | 0.20 | 0.00 | 99 | 1006.4 | |
| 20260901020036 | 45 | 0.0 | 0.0 | 0.00 | 0.20 | 0.00 | 99 | 1006.6 | |
| 20260901015100 | 46 | 0.0 | 0.0 | 0.00 | 0.20 | 0.00 | 99 | 1006.3 | |
| 20260901014124 | 46 | 0.0 | 0.0 | 0.00 | 0.20 | 0.00 | 99 | 1006.5 | |
| 20260901013056 | 46 | 0.0 | 0.0 | 0.00 | 0.20 | 0.00 | 99 | 1006.4 | |
| 20260901012120 | 47 | 0.0 | 0.0 | 0.00 | 0.20 | 0.00 | 99 | 1006.5 | |
| 20260901011144 | 46 | 0.0 | 0.0 | 0.00 | 0.21 | 0.00 | 99 | 1006.4 | |
| 20260901010036 | 47 | 0.0 | 0.0 | 0.00 | 0.21 | 0.00 | 99 | 1006.4 | |
| 20260901005100 | 47 | 0.0 | 0.0 | 0.00 | 0.21 | 0.00 | 99 | 1006.2 | |
| 20260901004144 | 47 | 0.0 | 0.0 | 0.00 | 0.21 | 0.00 | 99 | 1006.4 | |
| 20260901003036 | 47 | 0.0 | 0.0 | 0.00 | 0.21 | 0.00 | 99 | 1006.3 | |
| 20260901002100 | 47 | 0.0 | 0.0 | 0.00 | 0.21 | 0.00 | 99 | 1006.5 | |
| 20260901001124 | 47 | 0.0 | 0.0 | 0.00 | 0.21 | 0.00 | 99 | 1006.6 | |
| 20260901000036 | 47 | 0.0 | 0.0 | 0.00 | 0.21 | 0.00 | 99 | 1006.3 | |
| 20260831235119 | 48 | 0.0 | 0.0 | 0.00 | 0.21 | 0.00 | 99 | 1006.5 | |
| 20260831234124 | 48 | 0.0 | 0.0 | 0.00 | 0.21 | 0.00 | 99 | 1006.6 | |
| 20260831233035 | 48 | 0.0 | 0.0 | 0.00 | 0.21 | 0.00 | 99 | 1006.6 | |
| 20260831232100 | 47 | 0.0 | 0.0 | 0.00 | 0.21 | 0.00 | 99 | 1006.4 | |
| 20260831231144 | 47 | 0.0 | 0.0 | 0.00 | 0.21 | 0.00 | 99 | 1006.6 | |
| 20260831230035 | 47 | 0.0 | 0.0 | 0.00 | 0.21 | 0.21 | 99 | 1006.6 | |
| 20260831225100 | 47 | 0.0 | 0.0 | 0.00 | 0.21 | 0.21 | 99 | 1006.6 | |
| 20260831224125 | 48 | 0.0 | 0.0 | 0.00 | 0.21 | 0.21 | 99 | 1006.6 | |
| 20260831223036 | 48 | 0.0 | 0.0 | 0.00 | 0.21 | 0.21 | 99 | 1006.6 | |
| 20260831222101 | 48 | 0.0 | 0.0 | 0.00 | 0.21 | 0.21 | 99 | 1006.7 | |
| 20260831221125 | 48 | 0.0 | 0.0 | 0.00 | 0.21 | 0.21 | 99 | 1006.5 | |
| 20260831220036 | 48 | 0.0 | 0.0 | 0.00 | 0.21 | 0.21 | 99 | 1006.4 | |
| 20260831215120 | 48 | 0.0 | 0.0 | 0.00 | 0.21 | 0.21 | 99 | 1006.2 | |
| 20260831214124 | 48 | 0.0 | 0.0 | 0.00 | 0.21 | 0.21 | 99 | 1006.3 | |
| 20260831213036 | 48 | 0.0 | 0.0 | 0.00 | 0.21 | 0.21 | 99 | 1006.4 | |
| 20260831212100 | 49 | 0.0 | 0.0 | 0.00 | 0.21 | 0.21 | 98 | 1006.3 | |
| 20260831211125 | 49 | 0.0 | 0.0 | 0.00 | 0.21 | 0.21 | 98 | 1006.5 | |
| 20260831210116 | 49 | 0.0 | 0.0 | 0.00 | 0.21 | 0.21 | 98 | 1006.5 | |
| 20260831205101 | 49 | 0.0 | 0.0 | 0.00 | 0.21 | 0.21 | 98 | 1006.3 | |
| 20260831204145 | 49 | 0.0 | 0.0 | 0.00 | 0.21 | 0.21 | 97 | 1006.2 | |
| 20260831203057 | 49 | 0.0 | 0.0 | 0.00 | 0.21 | 0.21 | 97 | 1006.3 | |
| 20260831202100 | 49 | 0.0 | 0.0 | 0.00 | 0.21 | 0.21 | 96 | 1006.3 | |
| 20260831201125 | 50 | 324 | 0.0 | 1.0 | 0.00 | 0.21 | 0.21 | 95 | 1006.4 |
| 20260831200037 | 50 | 322 | 1.0 | 1.0 | 0.02 | 0.21 | 0.21 | 96 | 1006.5 |
| 20260831195101 | 50 | 279 | 1.0 | 1.0 | 0.02 | 0.21 | 0.21 | 97 | 1006.2 |
| 20260831194124 | 50 | 0.0 | 0.0 | 0.02 | 0.21 | 0.21 | 97 | 1006.4 | |
| 20260831193037 | 50 | 12 | 0.0 | 1.0 | 0.02 | 0.21 | 0.21 | 97 | 1006.3 |
| 20260831192120 | 50 | 10 | 1.0 | 2.0 | 0.02 | 0.21 | 0.21 | 97 | 1006.3 |
| 20260831191125 | 50 | 294 | 0.0 | 1.0 | 0.01 | 0.20 | 0.20 | 98 | 1006.4 |
| 20260831190057 | 50 | 12 | 0.0 | 1.0 | 0.05 | 0.19 | 0.19 | 98 | 1006.3 |
| 20260831185101 | 51 | 0.0 | 0.0 | 0.05 | 0.19 | 0.19 | 97 | 1006.3 | |
| 20260831184204 | 51 | 0.0 | 0.0 | 0.05 | 0.20 | 0.19 | 97 | 1006.2 | |
| 20260831183036 | 51 | 0.0 | 0.0 | 0.04 | 0.21 | 0.18 | 97 | 1006.3 | |
| 20260831182120 | 51 | 0.0 | 0.0 | 0.03 | 0.21 | 0.17 | 97 | 1006.1 | |
| 20260831181144 | 51 | 0.0 | 0.0 | 0.01 | 0.20 | 0.15 | 97 | 1006.3 | |
| 20260831180036 | 51 | 0.0 | 0.0 | 0.04 | 0.19 | 0.14 | 98 | 1006.2 | |
| 20260831175120 | 51 | 0.0 | 0.0 | 0.03 | 0.18 | 0.13 | 98 | 1006.0 | |
| 20260831174144 | 51 | 0.0 | 0.0 | 0.02 | 0.17 | 0.12 | 98 | 1006.1 | |
| 20260831173056 | 51 | 0.0 | 0.0 | 0.01 | 0.16 | 0.11 | 98 | 1006.1 | |
| 20260831172100 | 51 | 0.0 | 0.0 | 0.00 | 0.15 | 0.10 | 98 | 1006.0 | |
| 20260831171124 | 51 | 0.0 | 0.0 | 0.00 | 0.15 | 0.10 | 97 | 1006.0 | |
| 20260831170036 | 51 | 0.0 | 0.0 | 0.02 | 0.15 | 0.10 | 97 | 1006.1 | |
| 20260831165120 | 51 | 0.0 | 0.0 | 0.01 | 0.14 | 0.09 | 96 | 1006.0 | |
| 20260831164124 | 51 | 0.0 | 0.0 | 0.01 | 0.14 | 0.09 | 96 | 1006.1 | |
| 20260831163036 | 51 | 0.0 | 0.0 | 0.00 | 0.13 | 0.08 | 95 | 1006.1 | |
| 20260831162100 | 51 | 0.0 | 0.0 | 0.00 | 0.13 | 0.08 | 95 | 1006.0 | |
| 20260831161124 | 51 | 0.0 | 0.0 | 0.00 | 0.13 | 0.08 | 94 | 1005.9 | |
| 20260831160036 | 51 | 0.0 | 0.0 | 0.03 | 0.13 | 0.08 | 93 | 1005.9 | |
| 20260831155100 | 52 | 320 | 1.0 | 2.0 | 0.02 | 0.12 | 0.07 | 93 | 1005.9 |
| 20260831154124 | 52 | 0.0 | 0.0 | 0.02 | 0.12 | 0.07 | 94 | 1006.0 | |
| 20260831153036 | 52 | 342 | 0.0 | 1.0 | 0.02 | 0.12 | 0.07 | 94 | 1006.0 |
| 20260831152100 | 52 | 19 | 1.0 | 1.0 | 0.01 | 0.11 | 0.06 | 94 | 1006.1 |
| 20260831151124 | 52 | 0.0 | 0.0 | 0.01 | 0.11 | 0.06 | 94 | 1005.8 | |
| 20260831150036 | 52 | 318 | 0.0 | 1.0 | 0.03 | 0.10 | 0.05 | 94 | 1006.0 |
| 20260831145100 | 52 | 12 | 0.0 | 1.0 | 0.02 | 0.09 | 0.04 | 93 | 1006.0 |